DW7854 Weather Reports


Display with metric or nautical units.
time (UTC)temp
F
wind
direction
speed
MPH
gust
MPH
rain 1hr
in
rain 24hr
in
rain mn
in
humidity
%
barometer
mb
20260505100105 67 192 7.0 9.0 0.00 0.00 0.00 84 1004.4
20260505095331 68 173 5.0 11.0 0.00 0.00 0.00 84 1004.3
20260505094607 67 173 4.0 11.0 0.00 0.00 0.00 83 1004.5
20260505093531 68 166 6.0 11.0 0.00 0.00 0.00 83 1004.5
20260505093112 67 163 6.0 11.0 0.00 0.00 0.00 83 1004.5
20260505092631 68 169 5.0 9.0 0.00 0.00 0.00 83 1004.5
20260505091731 68 176 6.0 11.0 0.00 0.00 0.00 83 1004.7
20260505091509 67 154 5.0 11.0 0.00 0.00 0.00 83 1004.9
20260505090831 68 173 6.0 11.0 0.00 0.00 0.00 83 1004.8
20260505085931 68 174 8.0 15.0 0.00 0.00 0.00 82 1004.8
20260505084506 67 173 4.0 14.0 0.00 0.00 0.00 82 1004.9
20260505083231 67 164 7.0 14.0 0.00 0.00 0.00 83 1004.7
20260505083005 67 165 8.0 14.0 0.00 0.00 0.00 82 1004.8
20260505082331 67 168 6.0 13.0 0.00 0.00 0.00 82 1004.8
20260505081504 67 174 8.0 13.0 0.00 0.00 0.00 82 1005.0
20260505081431 67 163 5.0 13.0 0.00 0.00 0.00 82 1005.0
20260505080531 67 161 6.0 10.0 0.00 0.00 0.00 82 1005.1
20260505080005 67 173 7.0 10.0 0.00 0.00 0.00 82 1005.2
20260505074731 67 160 5.0 10.0 0.00 0.00 0.00 82 1005.2
20260505074613 67 167 6.0 8.0 0.00 0.00 0.00 82 1005.2
20260505073831 67 167 5.0 9.0 0.00 0.00 0.00 81 1005.3
20260505073004 67 137 5.0 9.0 0.00 0.00 0.00 81 1005.5
20260505072031 68 153 4.0 11.0 0.00 0.00 0.00 80 1005.5
20260505071505 67 163 4.0 10.0 0.00 0.00 0.00 80 1005.7
20260505071131 68 159 5.0 8.0 0.00 0.00 0.00 80 1005.7
20260505070104 67 160 4.0 8.0 0.00 0.00 0.00 79 1005.9
20260505065331 68 159 5.0 8.0 0.00 0.00 0.00 79 1005.8
20260505064505 67 128 5.0 10.0 0.00 0.00 0.00 79 1006.1
20260505064431 68 158 5.0 10.0 0.00 0.00 0.00 79 1005.9
20260505063531 68 158 4.0 7.0 0.00 0.00 0.00 78 1006.1
20260505063005 67 165 4.0 8.0 0.00 0.00 0.00 78 1006.3
20260505062631 68 161 4.0 7.0 0.00 0.00 0.00 78 1006.1
20260505061517 67 193 3.0 6.0 0.00 0.00 0.00 77 1006.4
20260505060831 68 163 3.0 6.0 0.00 0.00 0.00 76 1006.3
20260505060004 68 161 3.0 6.0 0.00 0.00 0.00 75 1006.6
20260505055931 68 164 4.0 6.0 0.00 0.00 0.00 75 1006.5
20260505055031 68 161 4.0 6.0 0.00 0.00 0.00 74 1006.5
20260505054504 68 186 2.0 6.0 0.00 0.00 0.00 74 1006.7
20260505054131 69 160 4.0 7.0 0.00 0.00 0.00 74 1006.5
20260505053231 69 159 4.0 8.0 0.00 0.00 0.00 73 1006.7
20260505053004 68 165 4.0 8.0 0.00 0.00 0.00 74 1006.8
20260505052331 69 164 4.0 7.0 0.00 0.00 0.00 73 1006.7
20260505051607 68 206 4.0 8.0 0.00 0.00 0.00 73 1006.9
20260505051431 69 156 4.0 9.0 0.00 0.00 0.00 73 1006.6
20260505050531 69 156 4.0 7.0 0.00 0.00 0.00 73 1006.7
20260505050104 68 177 4.0 6.0 0.00 0.00 0.00 72 1006.9
20260505041603 68 155 3.0 6.0 0.00 0.00 0.00 70 1007.2
20260505041131 68 156 3.0 5.0 0.00 0.00 0.00 70 1007.1
20260505040230 68 154 3.0 5.0 0.00 0.00 0.00 70 1007.1
20260505035331 68 149 3.0 5.0 0.00 0.00 0.00 70 1007.2
20260505034605 68 152 3.0 6.0 0.00 0.00 0.00 70 1007.3
20260505034431 68 150 2.0 6.0 0.00 0.00 0.00 70 1007.1
20260505033531 68 156 2.0 4.0 0.00 0.00 0.00 70 1007.3
20260505033003 68 159 0.0 4.0 0.00 0.00 0.00 70 1007.5
20260505032631 68 155 1.0 4.0 0.00 0.00 0.00 70 1007.3
20260505031731 68 163 1.0 5.0 0.00 0.00 0.00 70 1007.2
20260505031619 68 189 2.0 5.0 0.00 0.00 0.00 70 1007.4
20260505030830 69 164 0.0 3.0 0.00 0.00 0.00 70 1007.1
20260505030005 68 165 0.0 2.0 0.00 0.00 0.00 69 1007.2
20260505025931 69 164 1.0 3.0 0.00 0.00 0.00 69 1007.0
20260505025031 69 164 1.0 3.0 0.00 0.00 0.00 69 1006.9
20260505024510 69 165 0.0 3.0 0.00 0.00 0.00 69 1007.2
20260505024131 69 164 0.0 3.0 0.00 0.00 0.00 69 1007.0
20260505023104 69 165 0.0 0.0 0.00 0.00 0.00 67 1007.2
20260505022331 70 164 0.0 2.0 0.00 0.00 0.00 67 1006.9
20260505021509 69 165 1.0 3.0 0.00 0.00 0.00 67 1006.9
20260505021431 70 164 2.0 4.0 0.00 0.00 0.00 67 1006.7
20260505020530 71 164 1.0 4.0 0.00 0.00 0.00 66 1006.5
20260505020004 71 165 0.0 2.0 0.00 0.00 0.00 65 1006.6
20260505015630 71 164 0.0 2.0 0.00 0.00 0.00 64 1006.5
20260505014730 72 164 2.0 4.0 0.00 0.00 0.00 64 1006.3
20260505014607 71 165 0.0 4.0 0.00 0.00 0.00 64 1006.4
20260505013830 72 164 1.0 4.0 0.00 0.00 0.00 63 1006.2
20260505013004 72 165 1.0 4.0 0.00 0.00 0.00 63 1006.6
20260505012931 72 164 2.0 4.0 0.00 0.00 0.00 63 1006.4
20260505012030 72 175 4.0 6.0 0.00 0.00 0.00 62 1006.2
20260505011507 72 172 3.0 8.0 0.00 0.00 0.00 62 1006.4
20260505011130 73 171 4.0 8.0 0.00 0.00 0.00 62 1006.2
20260505010230 73 175 5.0 7.0 0.00 0.00 0.00 61 1006.1
20260505010105 73 193 4.0 7.0 0.00 0.00 0.00 61 1006.4
20260505005331 74 175 5.0 8.0 0.00 0.00 0.00 60 1006.2
20260505004606 74 182 3.0 9.0 0.00 0.00 0.00 60 1006.3
20260505004430 74 170 5.0 8.0 0.00 0.00 0.00 59 1006.1
20260505003530 75 176 6.0 9.0 0.00 0.00 0.00 58 1006.2
20260505003004 74 205 4.0 12.0 0.00 0.00 0.00 58 1006.5
20260505002630 75 171 6.0 10.0 0.00 0.00 0.00 58 1006.2
20260505001730 75 175 7.0 11.0 0.00 0.00 0.00 58 1006.4
20260505001504 75 180 7.0 15.0 0.00 0.00 0.00 58 1006.7
20260505000830 75 169 7.0 15.0 0.00 0.00 0.00 57 1006.4
20260505000108 75 159 4.0 11.0 0.00 0.00 0.00 58 1006.7
20260504235930 76 179 6.0 11.0 0.00 0.00 0.00 58 1006.5
20260504235031 76 167 5.0 10.0 0.00 0.00 0.00 58 1006.5
20260504234605 76 174 5.0 12.0 0.00 0.00 0.00 58 1006.7
20260504234130 76 176 6.0 12.0 0.00 0.00 0.00 57 1006.6
20260504233230 76 167 5.0 12.0 0.00 0.00 0.00 56 1006.6
20260504233006 76 155 6.0 12.0 0.00 0.00 0.00 57 1006.8
20260504232330 77 173 6.0 11.0 0.00 0.00 0.00 56 1006.7
20260504231504 76 178 5.0 10.0 0.00 0.00 0.00 57 1006.9
20260504230530 77 163 8.0 14.0 0.00 0.00 0.00 56 1006.8
20260504230111 77 159 9.0 16.0 0.00 0.00 0.00 55 1007.0
20260504225630 78 165 9.0 15.0 0.00 0.00 0.00 55 1006.9
20260504224730 78 162 9.0 17.0 0.00 0.00 0.00 55 1007.1
20260504224604 78 182 8.0 17.0 0.00 0.00 0.00 54 1007.3
20260504223830 79 160 8.0 14.0 0.00 0.00 0.00 54 1007.1
20260504223104 78 161 7.0 14.0 0.00 0.00 0.00 53 1007.3
20260504222931 79 165 8.0 14.0 0.00 0.00 0.00 53 1007.2
20260504222031 79 165 7.0 16.0 0.00 0.00 0.00 55 1007.3
20260504221609 79 179 6.0 16.0 0.00 0.00 0.00 54 1007.5
20260504221131 79 171 7.0 16.0 0.00 0.00 0.00 54 1007.3
20260504220230 79 170 7.0 12.0 0.00 0.00 0.00 54 1007.5
20260504220005 78 177 6.0 13.0 0.00 0.00 0.00 54 1007.7
20260504215330 79 168 10.0 21.0 0.00 0.00 0.00 53 1007.6
20260504214606 79 196 7.0 17.0 0.00 0.00 0.00 54 1007.8
20260504214430 79 152 10.0 17.0 0.00 0.00 0.00 54 1007.6
20260504213530 80 169 8.0 16.0 0.00 0.00 0.00 50 1007.7
20260504213003 80 154 5.0 15.0 0.00 0.00 0.00 53 1008.1
20260504212630 80 169 7.0 18.0 0.00 0.00 0.00 52 1007.9
20260504211604 80 168 10.0 19.0 0.00 0.00 0.00 51 1008.3
20260504210830 80 162 9.0 16.0 0.00 0.00 0.00 52 1008.1
20260504210007 80 153 10.0 19.0 0.00 0.00 0.00 51 1008.6
20260504205930 80 169 10.0 19.0 0.00 0.00 0.00 50 1008.4
20260504205030 81 164 8.0 16.0 0.00 0.00 0.00 49 1008.7
20260504204619 80 157 7.0 14.0 0.00 0.00 0.00 53 1008.9
20260504204130 80 169 10.0 14.0 0.00 0.00 0.00 50 1008.8
20260504203106 80 174 10.0 16.0 0.00 0.00 0.00 49 1009.1
20260504201505 80 169 8.0 18.0 0.00 0.00 0.00 50 1009.4
20260504201430 80 155 8.0 18.0 0.00 0.00 0.00 50 1009.2
20260504200004 80 175 9.0 17.0 0.00 0.00 0.00 48 1009.6
20260504195630 80 170 8.0 16.0 0.00 0.00 0.00 47 1009.7
20260504194730 80 167 8.0 14.0 0.00 0.00 0.00 51 1009.8
20260504194507 80 169 7.0 14.0 0.00 0.00 0.00 53 1010.1
20260504193830 80 169 9.0 14.0 0.00 0.00 0.00 53 1010.0
20260504193005 79 153 7.0 14.0 0.00 0.00 0.00 50 1010.4
20260504192930 79 161 8.0 16.0 0.00 0.00 0.00 50 1010.2
20260504192030 79 164 9.0 20.0 0.00 0.00 0.00 48 1010.4
20260504191607 79 168 5.0 16.0 0.00 0.00 0.00 51 1010.7
20260504191130 79 173 8.0 15.0 0.00 0.00 0.00 50 1010.5
20260504190230 79 168 8.0 14.0 0.00 0.00 0.00 50 1010.7
20260504190106 78 177 6.0 14.0 0.00 0.00 0.00 51 1010.8
20260504185330 79 170 8.0 15.0 0.00 0.00 0.00 52 1010.7
20260504184603 78 153 9.0 15.0 0.00 0.00 0.00 48 1011.0
20260504184430 79 170 8.0 15.0 0.00 0.00 0.00 48 1011.0
20260504183530 79 174 8.0 17.0 0.00 0.00 0.00 49 1011.1
20260504183009 78 173 11.0 19.0 0.00 0.00 0.00 49 1011.3
20260504182630 79 174 7.0 15.0 0.00 0.00 0.00 51 1011.2
20260504181730 78 179 8.0 16.0 0.00 0.00 0.00 48 1011.4
20260504181504 78 162 9.0 16.0 0.00 0.00 0.00 48 1011.6
20260504180830 78 175 9.0 19.0 0.00 0.00 0.00 49 1011.5
20260504180006 78 169 10.0 18.0 0.00 0.00 0.00 50 1011.7
20260504175930 78 174 9.0 17.0 0.00 0.00 0.00 49 1011.5
20260504175030 78 179 7.0 14.0 0.00 0.00 0.00 50 1011.7
20260504174504 77 191 4.0 15.0 0.00 0.00 0.00 50 1012.1
20260504174130 78 176 8.0 14.0 0.00 0.00 0.00 48 1011.8
20260504173230 78 188 6.0 12.0 0.00 0.00 0.00 50 1012.0
20260504173007 77 213 6.0 14.0 0.00 0.00 0.00 48 1012.3
20260504172330 78 170 8.0 18.0 0.00 0.00 0.00 50 1012.1
20260504171510 77 167 6.0 16.0 0.00 0.00 0.00 52 1012.4
20260504171430 77 179 7.0 16.0 0.00 0.00 0.00 53 1012.2
20260504170530 77 175 10.0 19.0 0.00 0.00 0.00 51 1012.2
20260504170106 76 193 10.0 20.0 0.00 0.00 0.00 51 1012.3
20260504160230 75 182 5.0 13.0 0.00 0.00 0.00 53 1013.0
20260504160107 74 219 4.0 13.0 0.00 0.00 0.00 59 1013.1
20260504150830 72 186 5.0 14.0 0.00 0.00 0.00 57 1013.1
20260504150105 71 159 5.0 12.0 0.00 0.00 0.00 59 1013.2
20260504140530 67 177 5.0 10.0 0.00 0.00 0.00 69 1013.1
20260504130230 58 172 1.0 3.0 0.00 0.00 0.00 88 1013.2
20260504120104 54 311 0.0 2.0 0.00 0.00 0.00 88 1013.2
20260504110530 54 0 0.0 0.0 0.00 0.00 0.00 88 1012.3
20260504100230 54 0 0.0 0.0 0.00 0.00 0.00 88 1012.5